FW1436 Weather Reports


Display with metric or nautical units.
time (UTC)temp
F
wind
direction
speed
MPH
gust
MPH
rain 1hr
in
rain 24hr
in
rain mn
in
humidity
%
barometer
mb
20260510093033 56 64 2.0 10.0 0.00 0.00 0.00 83 1009.6
20260510091533 56 193 2.0 14.0 0.00 0.00 0.00 82 1009.8
20260510090029 55 287 3.0 9.0 0.00 0.00 0.00 87 1009.9
20260510084524 54 181 2.0 11.0 0.00 0.00 0.00 91 1010.1
20260510083022 53 217 2.0 13.0 0.00 0.00 0.00 93 1010.2
20260510081519 53 207 1.0 8.0 0.00 0.00 0.00 96 1010.1
20260510080018 52 245 3.0 9.0 0.00 0.00 0.00 96 1010.3
20260510074516 51 142 1.0 4.0 0.00 0.00 0.00 96 1010.4
20260510073012 50 110 0.0 0.0 0.00 0.00 0.00 96 1010.4
20260510071513 50 131 0.0 0.0 0.00 0.00 0.00 96 1010.3
20260510070009 50 131 0.0 1.0 0.00 0.00 0.00 96 1010.3
20260510064507 49 136 0.0 0.0 0.00 0.00 0.00 96 1010.3
20260510063005 49 136 0.0 0.0 0.00 0.00 0.00 96 1010.2
20260510061505 49 145 0.0 0.0 0.00 0.00 0.00 96 1010.3
20260510060006 48 145 0.0 0.0 0.00 0.00 0.00 96 1009.9
20260510054504 48 134 0.0 0.0 0.00 0.00 0.00 96 1010.0
20260510053002 48 134 0.0 0.0 0.00 0.00 0.00 96 1010.0
20260510051502 48 134 0.0 0.0 0.00 0.00 0.00 96 1009.8
20260510050002 48 134 0.0 0.0 0.00 0.00 0.00 96 1009.9
20260510044501 48 266 0.0 0.0 0.00 0.00 0.00 96 1010.0
20260510043144 48 266 0.0 0.0 0.00 0.00 0.00 96 1010.0
20260510041559 48 300 0.0 2.0 0.00 0.00 0.00 96 1010.0
20260510040059 48 191 0.0 0.0 0.00 0.00 0.00 96 1010.0
20260510034558 48 191 0.0 0.0 0.00 0.00 0.00 96 1009.9
20260510033057 48 191 0.0 0.0 0.00 0.00 0.00 96 1010.1
20260510031626 48 195 0.0 2.0 0.00 0.00 0.00 96 1010.2
20260510030054 48 201 0.0 0.0 0.00 0.00 0.00 95 1010.3
20260510024552 48 241 0.0 2.0 0.00 0.00 0.00 95 1010.4
20260510023058 49 210 0.0 2.0 0.00 0.00 0.00 95 1010.5
20260510021550 49 238 0.0 2.0 0.00 0.00 0.00 96 1010.5
20260510020049 49 288 0.0 1.0 0.00 0.00 0.00 95 1010.4
20260510014545 49 245 0.0 2.0 0.00 0.00 0.00 95 1010.4
20260510013041 49 261 0.0 4.0 0.00 0.00 0.00 95 1010.4
20260510011545 49 235 0.0 4.0 0.00 0.00 0.00 95 1010.5
20260510010034 49 234 0.0 3.0 0.00 0.00 0.00 95 1010.6
20260510004532 49 260 1.0 5.0 0.00 0.00 0.00 95 1010.6
20260510003028 49 285 1.0 3.0 0.00 0.00 0.00 95 1010.6
20260510001526 49 250 0.0 6.0 0.00 0.00 0.00 95 1010.7
20260510000026 49 286 1.0 6.0 0.00 0.00 0.00 95 1010.7
20260509234525 49 219 1.0 7.0 0.00 0.00 0.00 95 1010.7
20260509233023 49 238 0.0 3.0 0.00 0.00 0.00 95 1010.8
20260509231522 49 252 0.0 3.0 0.00 0.00 0.00 95 1010.8
20260509230021 49 345 2.0 7.0 0.00 0.00 0.00 94 1010.7
20260509224520 49 258 2.0 7.0 0.00 0.00 0.00 94 1010.5
20260509223022 49 309 2.0 9.0 0.00 0.00 0.00 94 1010.5
20260509221515 49 272 1.0 4.0 0.00 0.00 0.00 94 1010.4
20260509220011 50 229 0.0 6.0 0.00 0.00 0.00 94 1010.2
20260509214509 50 254 0.0 6.0 0.00 0.00 0.00 94 1009.8
20260509213008 50 274 3.0 7.0 0.00 0.00 0.00 93 1009.6
20260509211507 50 284 1.0 10.0 0.00 0.00 0.00 93 1009.8
20260509210004 50 295 4.0 14.0 0.00 0.00 0.00 92 1009.6
20260509204504 51 276 5.0 16.0 0.00 0.00 0.00 90 1009.5
20260509203001 54 124 0.0 1.0 0.00 0.00 0.00 86 1008.0
20260509201501 54 153 1.0 5.0 0.00 0.00 0.00 85 1007.7
20260509200104 55 324 0.0 9.0 0.00 0.00 0.00 85 1007.5
20260509194601 55 258 1.0 5.0 0.00 0.00 0.00 84 1007.5
20260509193058 55 171 0.0 0.0 0.00 0.00 0.00 88 1007.1
20260509191600 55 171 0.0 2.0 0.00 0.00 0.00 87 1006.9
20260509190104 56 142 1.0 5.0 0.00 0.00 0.00 87 1006.5
20260509184558 56 98 1.0 5.0 0.00 0.00 0.00 87 1006.4
20260509183057 57 125 1.0 3.0 0.00 0.00 0.00 84 1006.7
20260509181608 59 125 0.0 4.0 0.00 0.00 0.00 80 1006.8
20260509180055 60 133 1.0 4.0 0.00 0.00 0.00 77 1006.7
20260509174555 60 148 1.0 9.0 0.00 0.00 0.00 77 1006.7
20260509173106 59 219 1.0 7.0 0.00 0.00 0.00 80 1006.7
20260509171606 58 150 2.0 9.0 0.00 0.00 0.00 82 1006.7
20260509170053 60 177 3.0 7.0 0.00 0.00 0.00 77 1006.7
20260509164551 60 134 0.0 3.0 0.00 0.00 0.00 77 1006.2
20260509163058 61 137 0.0 5.0 0.00 0.00 0.00 76 1006.6
20260509161550 61 153 1.0 5.0 0.00 0.00 0.00 77 1006.4
20260509160051 62 295 2.0 6.0 0.00 0.00 0.00 76 1006.5
20260509154545 59 84 1.0 4.0 0.00 0.00 0.00 87 1006.6
20260509153044 57 139 0.0 3.0 0.00 0.00 0.00 92 1006.8
20260509151544 55 138 0.0 3.0 0.00 0.00 0.00 90 1007.2
20260509150041 56 167 0.0 2.0 0.00 0.00 0.00 89 1007.2
20260509144540 56 114 0.0 7.0 0.00 0.00 0.00 88 1007.2
20260509143039 56 43 2.0 7.0 0.00 0.00 0.00 89 1007.0
20260509141537 56 128 2.0 6.0 0.00 0.00 0.00 88 1007.2
20260509140038 56 64 0.0 4.0 0.00 0.00 0.00 93 1007.6
20260509134548 56 183 1.0 5.0 0.00 0.00 0.00 95 1007.6
20260509133134 55 150 0.0 4.0 0.00 0.00 0.00 95 1008.0
20260509131535 53 315 0.0 1.0 0.00 0.00 0.00 95 1008.4
20260509130033 53 305 0.0 4.0 0.00 0.00 0.00 94 1008.2
20260509124532 53 265 2.0 6.0 0.00 0.00 0.00 94 1007.9
20260509123032 53 310 1.0 3.0 0.00 0.00 0.00 94 1007.6
20260509121537 53 314 3.0 7.0 0.00 0.00 0.00 93 1008.1
20260509120034 53 292 2.0 6.0 0.00 0.00 0.00 93 1007.9
20260509114531 53 323 1.0 5.0 0.00 0.00 0.00 93 1007.8
20260509113028 53 286 2.0 8.0 0.00 0.00 0.00 92 1007.9
20260509111527 53 207 2.0 7.0 0.00 0.00 0.00 91 1008.1
20260509110028 53 214 1.0 7.0 0.00 0.00 0.00 90 1008.1
20260509104526 55 225 2.0 6.0 0.00 0.00 0.00 89 1008.0
20260509103025 58 203 4.0 14.0 0.00 0.00 0.00 78 1007.9
20260509101525 60 241 2.0 11.0 0.00 0.00 0.00 73 1007.5
20260509100023 59 180 5.0 11.0 0.00 0.00 0.00 75 1007.5
20260509094519 58 69 1.0 7.0 0.00 0.00 0.00 77 1007.5